Total_Precipitation_Accumulation
0.01 0.01 0.01 0.02 0.03 0.03 0.07 0.12 0.24 0.29 0.22 0.33 0.42 0.63 0.73 0.85 1.04 1.04 0.89 0.95 1.24 1.45 1.73 2.19 2.74 3.59 4.66 5.57 5.84 5.34 4.85 4.50 4.07 3.67 3.10 2.74 2.71 2.63 2.35 2.07 1.80 1.72 1.68 1.77
0.01 0.02 0.02 0.02 0.03 0.05 0.08 0.12 0.22 0.28 0.20 0.25 0.42 0.74 1.05 1.03 0.96 0.91 0.97 0.97 1.07 1.44 1.89 2.61 3.64 4.22 4.46 4.58 4.35 4.01 3.76 3.55 3.09 2.74 2.51 2.27 2.27 2.07 1.89 1.80 1.79 1.52 1.46 1.54
0.02 0.04 0.02 0.02 0.04 0.10 0.12 0.15 0.22 0.27 0.18 0.22 0.45 0.94 1.22 1.21 0.98 0.84 0.89 0.88 1.06 1.48 2.07 2.87 3.45 3.57 3.28 2.97 2.88 2.83 2.90 2.65 2.52 2.48 2.38 2.28 2.29 2.06 1.80 1.70 1.66 1.43 1.27 1.30
0.03 0.02 0.02 0.03 0.05 0.09 0.10 0.09 0.08 0.11 0.18 0.38 0.58 1.20 1.42 1.18 1.11 0.92 0.92 0.93 0.97 1.24 1.60 2.02 2.25 2.15 2.26 2.40 2.42 2.54 2.63 2.38 2.35 2.30 2.03 1.93 1.83 1.74 1.61 1.55 1.53 1.62 1.37 1.22
0.04 0.03 0.02 0.03 0.04 0.05 0.05 0.05 0.06 0.13 0.26 0.46 0.66 0.94 1.18 0.99 1.14 0.93 0.80 0.80 0.76 0.91 0.98 1.09 1.22 1.38 1.60 1.71 1.87 2.17 2.41 2.35 2.19 2.03 1.97 2.03 1.89 1.84 1.81 1.82 1.79 1.76 1.62 1.38
0.05 0.05 0.04 0.04 0.04 0.04 0.05 0.07 0.15 0.27 0.43 0.93 0.88 0.88 1.12 1.05 1.14 0.90 0.72 0.63 0.67 0.77 0.84 0.88 0.94 1.09 1.26 1.38 1.54 1.79 2.10 2.24 2.17 2.01 1.93 1.97 2.02 1.97 1.87 1.83 1.79 1.60 1.50 1.44
0.10 0.08 0.06 0.04 0.04 0.07 0.07 0.09 0.28 0.63 1.03 1.19 0.77 0.87 1.10 0.87 0.80 0.67 0.45 0.44 0.56 0.75 0.88 0.95 0.90 0.88 0.94 1.08 1.23 1.33 1.52 1.79 1.91 1.88 1.86 1.88 2.01 1.92 1.72 1.59 1.49 1.43 1.25 1.17
0.14 0.12 0.06 0.04 0.05 0.07 0.06 0.05 0.14 0.28 0.39 0.57 0.75 1.15 1.23 0.88 0.60 0.37 0.29 0.39 0.57 0.72 0.77 0.81 0.79 0.75 0.73 0.81 0.99 1.12 1.32 1.50 1.69 1.72 1.71 1.72 1.78 1.71 1.58 1.56 1.34 1.25 1.20 1.14
0.06 0.05 0.04 0.04 0.06 0.07 0.07 0.05 0.06 0.10 0.16 0.37 0.76 1.07 1.02 0.79 0.59 0.42 0.36 0.39 0.51 0.56 0.59 0.70 0.74 0.82 0.79 0.76 0.87 1.01 1.26 1.45 1.63 1.74 1.76 1.68 1.67 1.66 1.64 1.60 1.40 1.23 1.32 1.24
0.03 0.03 0.05 0.05 0.06 0.06 0.07 0.07 0.06 0.07 0.16 0.30 0.60 1.01 1.20 0.97 0.73 0.57 0.49 0.49 0.57 0.59 0.63 0.82 0.95 0.91 0.76 0.64 0.71 0.88 1.08 1.35 1.52 1.67 1.67 1.55 1.71 1.67 1.66 1.59 1.47 1.34 1.33 1.31
0.02 0.03 0.06 0.06 0.07 0.08 0.08 0.08 0.07 0.07 0.10 0.18 0.43 0.65 0.61 0.58 0.52 0.52 0.60 0.58 0.50 0.60 0.72 0.87 1.03 0.99 0.77 0.65 0.63 0.75 0.98 1.22 1.34 1.43 1.52 1.49 1.53 1.50 1.51 1.53 1.51 1.47 1.44 1.37
0.02 0.02 0.04 0.07 0.09 0.09 0.10 0.11 0.12 0.12 0.11 0.12 0.23 0.43 0.34 0.38 0.46 0.52 0.62 0.70 0.72 0.75 0.77 0.70 0.80 0.96 0.90 0.78 0.68 0.79 1.00 1.15 1.19 1.27 1.30 1.33 1.41 1.43 1.39 1.35 1.40 1.44 1.38 1.31
0.03 0.02 0.04 0.13 0.19 0.15 0.11 0.10 0.11 0.13 0.14 0.12 0.25 0.48 0.38 0.33 0.47 0.51 0.56 0.80 0.97 0.70 0.58 0.57 0.66 0.79 0.94 0.90 0.80 0.90 1.01 1.09 1.17 1.13 1.13 1.15 1.20 1.21 1.21 1.23 1.30 1.39 1.41 1.39
0.03 0.03 0.03 0.10 0.19 0.21 0.16 0.12 0.13 0.12 0.10 0.10 0.17 0.40 0.39 0.39 0.50 0.71 0.77 0.81 0.68 0.61 0.61 0.58 0.63 0.79 0.90 0.95 0.92 0.90 0.97 1.12 1.15 1.08 1.15 1.26 1.29 1.31 1.31 1.31 1.39 1.48 1.53 1.48
0.04 0.03 0.03 0.03 0.07 0.12 0.15 0.16 0.14 0.10 0.07 0.11 0.14 0.27 0.33 0.43 0.54 0.67 0.70 0.63 0.57 0.61 0.62 0.61 0.68 0.84 0.92 1.05 1.09 1.04 1.01 1.07 1.18 1.25 1.34 1.51 1.65 1.65 1.55 1.56 1.66 1.74 1.78 1.72
0.04 0.03 0.03 0.03 0.06 0.11 0.12 0.14 0.10 0.08 0.07 0.09 0.13 0.20 0.27 0.43 0.51 0.60 0.57 0.55 0.63 0.63 0.58 0.55 0.66 0.85 0.87 0.87 0.93 0.92 0.93 0.97 1.00 1.09 1.22 1.42 1.62 1.71 1.72 1.78 1.88 1.91 1.88 1.97
0.07 0.06 0.05 0.04 0.07 0.10 0.17 0.14 0.10 0.10 0.09 0.10 0.16 0.23 0.26 0.36 0.51 0.63 0.66 0.71 0.73 0.64 0.57 0.59 0.63 0.74 0.90 0.82 0.79 0.87 0.93 1.02 1.10 1.26 1.43 1.56 1.74 1.87 1.89 1.86 1.89 1.93 1.93 1.91
0.17 0.15 0.12 0.10 0.11 0.16 0.19 0.15 0.15 0.15 0.16 0.19 0.23 0.28 0.35 0.40 0.50 0.63 0.68 0.66 0.70 0.72 0.78 0.83 0.89 0.90 0.98 0.96 0.93 0.99 1.03 1.15 1.21 1.27 1.40 1.51 1.70 1.83 1.90 2.00 2.06 2.13 2.16 2.16
0.29 0.30 0.23 0.17 0.15 0.19 0.23 0.23 0.24 0.26 0.32 0.34 0.40 0.46 0.48 0.47 0.49 0.62 0.72 0.74 0.84 0.83 0.86 0.92 0.98 1.02 1.02 1.10 1.18 1.26 1.24 1.35 1.47 1.49 1.64 1.77 1.84 1.97 2.05 2.09 2.20 2.30 2.37 2.33
0.33 0.37 0.35 0.27 0.29 0.32 0.34 0.36 0.30 0.35 0.65 0.59 0.58 0.65 0.65 0.69 0.87 0.95 0.96 0.92 0.93 0.92 0.96 1.01 0.98 0.98 1.09 1.16 1.26 1.37 1.51 1.64 1.80 1.87 1.91 1.97 2.09 2.14 2.13 2.12 2.17 2.19 2.22 2.23
0.38 0.45 0.44 0.40 0.40 0.39 0.38 0.39 0.40 0.72 1.03 0.98 0.95 0.94 0.87 0.96 1.03 0.95 0.89 0.99 1.00 1.07 1.14 1.11 1.09 1.12 1.15 1.15 1.23 1.39 1.59 1.74 1.81 1.87 1.93 2.02 2.11 2.27 2.34 2.35 2.22 2.08 2.05 2.10
0.62 0.65 0.64 0.62 0.74 0.76 0.52 0.55 0.79 1.01 0.98 1.16 1.08 0.99 1.01 1.00 0.94 0.87 0.89 1.01 1.11 1.17 1.23 1.23 1.22 1.19 1.20 1.26 1.32 1.43 1.59 1.70 1.78 1.80 1.90 1.99 2.03 2.05 2.08 2.29 2.34 2.25 2.15 2.09
0.85 0.87 0.90 0.87 0.96 0.86 0.72 0.75 0.87 0.83 0.85 1.02 1.03 0.94 0.93 0.92 0.89 0.86 0.88 0.95 1.00 1.05 1.12 1.16 1.20 1.24 1.28 1.33 1.41 1.54 1.62 1.71 1.74 1.85 2.00 2.11 2.12 2.15 2.13 2.13 2.19 2.14 2.06 1.92
1.03 0.85 0.97 1.14 1.16 1.03 0.88 0.77 0.79 0.81 0.81 0.85 0.95 0.99 0.97 0.93 0.90 0.91 0.90 0.92 1.04 1.10 1.14 1.19 1.19 1.23 1.37 1.47 1.59 1.62 1.61 1.72 1.89 1.96 2.00 2.03 2.04 2.02 2.09 2.19 2.12 2.04 2.03 1.96
1.13 1.09 1.27 1.63 1.69 1.48 1.28 1.10 1.00 0.96 0.96 0.98 1.09 1.13 1.16 1.14 1.10 1.06 0.99 0.96 1.00 1.06 1.08 1.16 1.25 1.29 1.37 1.45 1.57 1.66 1.68 1.75 1.84 1.79 1.71 1.74 1.81 1.82 1.82 1.96 2.02 1.84 1.78 1.84
1.17 1.35 1.65 1.97 1.84 1.79 1.65 1.36 1.19 1.17 1.23 1.19 1.21 1.26 1.20 1.13 1.12 1.10 1.07 0.97 0.91 0.92 1.01 1.09 1.18 1.29 1.35 1.40 1.46 1.50 1.55 1.65 1.76 1.80 1.73 1.66 1.64 1.68 1.73 1.74 1.77 1.75 1.53 1.52